Regional Weather Roundup
Issued by NWS

Home | Current Version | Previous Version | Text Only | Print | Product List | Glossary Off
Versions: 1 2 3 4 5 6 7 8 9 10 11 12 13 14 15 16 17 18 19 20 21 22 23 24 25 26 27 28 29 30 31 32 33 34 35 36 37 38 39 40 41 42 43 44 45 46 47 48 49 50

000
ASUS43 KDTX 020210
RWRMI
MICHIGAN HOURLY REGIONAL WEATHER ROUNDUP
NATIONAL WEATHER SERVICE DETROIT/PONTIAC MI
1000 PM EDT MON SEP 01 2014

NOTE: "FAIR" INDICATES FEW OR NO CLOUDS BELOW 12,000 FEET WITH NO
SIGNIFICANT WEATHER AND/OR OBSTRUCTION TO VISIBILITY.

MIZ047>049-052>055-059>063-066>070-074>076-081>083-020300-
SOUTHEAST LOWER MICHIGAN

CITY           SKY/WX    TMP DP  RH WIND       PRES   REMARKS
ADRIAN         PTCLDY    73  69  87 SW3       29.85R
ALMA           MOCLDY    71  66  85 CALM      29.81R
BAD AXE        PTCLDY    69  69 100 S7        29.78S
DETROIT CITY   PTCLDY    76  70  82 SW5       29.83R
DETROIT        PTCLDY    74  70  87 SW6       29.83R
FLINT          CLEAR     74  69  85 SW6       29.81R
GROSSE ILE     PTCLDY    75  72  88 SW5       29.81S
HILLSDALE      PTCLDY    74  71  90 SW3       29.86R
HOWELL         PTCLDY    71  69  96 S5        29.83R

CITY           SKY/WX    TMP DP  RH WIND       PRES   REMARKS
JACKSON        PTCLDY    74  69  85 SW5       29.83R
LAMBERTVILLE   PTCLDY    77  70  78 SW6       29.85R
LANSING        MOCLDY    74  65  73 W8        29.83R
LAPEER         NOT AVBL
MASON          PTCLDY    72  69  90 CALM      29.83R
MONROE         PTCLDY    75  70  83 SW7       29.82R
MT. CLEMENS    FOG       70  70  99 S2        29.81S VSB 1/2
PONTIAC        MOCLDY    71  68  90 S3        29.82R
PORT HOPE        N/A     70  67  90 CALM      29.75R
PORT HURON     CLOUDY    68  68 100 CALM      29.82S
TRI CITIES     MOCLDY    74  67  78 SW8       29.79R
YPSILANTI      PTCLDY    75  69  81 SW5       29.83R
$$
MIZ043>046-050>051-056>058-064>065-071>073-077>080-020300-
SOUTHWEST LOWER MICHIGAN

CITY           SKY/WX    TMP DP  RH WIND       PRES   REMARKS
BATTLE CREEK   PTCLDY    73  66  78 SW8       29.84R
BENTON HARBOR  CLEAR     75  66  73 SW14G22   29.82R
BIG RAPIDS     MOCLDY    70  67  91 W3        29.79R
COLDWATER      CLEAR     73  69  87 SW7       29.84R
HOLLAND        PTCLDY    74  67  78 SW8       29.81R
GRAND RAPIDS   PTCLDY    73  70  90 SW7       29.81R
KALAMAZOO      PTCLDY    73  65  75 SW6       29.84R
MARSHALL       MOCLDY    73  68  83 W7        29.84R
MUSKEGON       PTCLDY    73  65  75 W6        29.78R
$$
MIZ016>042-020300-
NORTHERN LOWER MICHIGAN

CITY           SKY/WX    TMP DP  RH WIND       PRES   REMARKS
ALPENA         PTCLDY    67  66  97 W3        29.73R
BEAVER ISLAND  MOCLDY    66  65  96 SW10      29.71R
BELLAIRE       CLOUDY    71  65  81 SW6       29.73R
CADILLAC       PTCLDY    67  65  94 SW8       29.79R
CHARLEVOIX     PTCLDY    69  66  89 SW9G17    29.75R
FRANKFORT      CLOUDY    70  64  80 W6        29.75R
GAYLORD        MOCLDY    67  64  90 W10       29.75R
GRAYLING       PTCLDY    69  68  96 W5        29.77R
HARBOR SPRINGS CLOUDY    69  65  86 W6        29.71S
HOUGHTON LAKE  PTCLDY    71  65  81 W9        29.77R
MANISTEE       CLEAR     70  63  78 W5        29.77R
OSCODA         PTCLDY    70  69  98 S3        29.74R
PELLSTON       PTCLDY    69  65  86 SW8       29.71R
TRAVERSE CITY  MOCLDY    71  64  78 SW7       29.73R
$$
MIZ007>008-015-020300-
EASTERN UPPER MICHIGAN

CITY           SKY/WX    TMP DP  RH WIND       PRES   REMARKS
KINROSS        CLOUDY    64  64 100 W6        29.69R
MACKINAC ISLAN MOCLDY    65  64  97 SW10G17   29.70R
NEWBERRY       PTCLDY    60  58  95 CALM      29.70R
S. S. MARIE    PTCLDY    63  60  90 CALM      29.69R
$$
MIZ004>006-011>014-085-020300-
CENTRAL UPPER MICHIGAN

CITY           SKY/WX    TMP DP  RH WIND       PRES   REMARKS
MANISTIQUE     CLEAR     62  61  96 CALM      29.70R
ESCANABA       CLEAR     63  57  82 CALM      29.71R
MENOMINEE      CLEAR     66  61  82 CALM      29.72R
SAWYER-GWINN   CLEAR     61  57  88 SW8       29.71R
$$
MIZ001>003-009>011-084-020300-
WESTERN UPPER MICHIGAN

CITY           SKY/WX    TMP DP  RH WIND       PRES   REMARKS
IRON MOUNTAIN  CLEAR     60  59  96 CALM      29.73R
HOUGHTON       PTCLDY    61  56  83 W8        29.68R
COPPER HARBOR    N/A     66  55  67 NW8G16    29.64R
$$

ABBREVIATIONS USED IN REMARKS
   TC - TEMPERATURE IN CELSIUS
  WCI - WIND CHILL INDEX
   HX - HEAT INDEX
  VSB - VISIBILITY



USA.gov is the U.S. government's official web portal to all federal, state and local government web resources and services.